Futenma Marine Corps Air Facility, Japan

4:41 PM JST on August 31, 2016 (GMT +0900)
Futenma Marine Corps Air Station

Weather History for ROTM - October, 2013

Change the Weather History Date:

Wednesday, October 16, 2013

  Actual Average (RODN) Record (RODN)
Temperature  
Mean Temperature 75 °F -  
Max Temperature 79 °F 77 °F 89 °F (1998)
Min Temperature 71 °F 66 °F 62 °F (2002)
Cooling Degree Days 10    
Growing Degree Days 25 (Base 50)    
Moisture  
Dew Point 61 °F    
Average Humidity 63    
Maximum Humidity 83    
Minimum Humidity 48    
Precipitation  
Precipitation 0.03 in - - ()
Sea Level Pressure  
Sea Level Pressure 29.93 in    
Wind  
Wind Speed 13 mph ()    
Max Wind Speed 18 mph    
Max Gust Speed 28 mph    
Visibility 6.0 miles    
Events Rain    
Averages and records for this station are not official NWS values.
T = Trace of Precipitation, MM = Missing Value Source: Averaged Metar Reports

Daily Weather History Graph

Daily Weather History Graph

Search for Another Location

Airport or City:

Trip Planner

Search our weather history database for the weather conditions in past years. The results will help you decide how hot, cold, wet, or windy it might be!

Date:

Astronomy

Oct. 16, 2013 Rise Set
Actual Time 6:28 AM JST 6:00 PM JST
Civil Twilight 6:05 AM JST 6:23 PM JST
Nautical Twilight 5:38 AM JST 6:50 PM JST
Astronomical Twilight 5:11 AM JST 7:17 PM JST
Moon 4:06 PM JST (10/16) 3:33 AM JST (10/16)
Length of Visible Light 12h 18m
Length of Day
11h 31m
Waxing Gibbous, 91% of the Moon is Illuminated
Oct 16
Waxing Gibbous
Oct 19
Full
Oct 27
Last Quarter
Nov 3
New
Nov 10
First Quarter

Hourly Weather History & Observations

Time (JST) Temp. Dew Point Humidity Pressure Visibility Wind Dir Wind Speed Gust Speed Precip Events Conditions
12:58 AM 74.8 °F 61.5 °F 63% 29.79 in 6.2 mi NNW 16.1 mph 27.6 mph N/A   Scattered Clouds
1:58 AM 74.7 °F 61.2 °F 63% 29.79 in 6.2 mi NNW 17.3 mph 27.6 mph N/A   Scattered Clouds
2:58 AM 74.1 °F 61.2 °F 64% 29.79 in 6.2 mi NNW 16.1 mph 25.3 mph N/A   Mostly Cloudy
3:58 AM 73.9 °F 61.3 °F 65% 29.80 in 6.2 mi NNW 17.3 mph 26.5 mph N/A   Mostly Cloudy
4:58 AM 72.7 °F 60.6 °F 66% 29.85 in 6.2 mi NNW 17.3 mph 25.3 mph N/A   Overcast
5:58 AM 72.5 °F 60.1 °F 65% 29.86 in 6.2 mi NNW 16.1 mph 23.0 mph N/A   Mostly Cloudy
7:58 AM 73.8 °F 59.4 °F 61% 29.92 in 5.6 mi NNW 11.5 mph 21.9 mph N/A   Mostly Cloudy
8:58 AM 73.8 °F 57.7 °F 57% 29.96 in 5.6 mi North 16.1 mph 23.0 mph N/A   Mostly Cloudy
9:58 AM 74.7 °F 59.0 °F 58% 29.96 in 5.6 mi North 17.3 mph 26.5 mph N/A   Haze
10:58 AM 78.4 °F 57.6 °F 49% 29.96 in 5.6 mi NNW 12.7 mph 19.6 mph N/A   Haze
11:58 AM 79.2 °F 57.9 °F 48% 29.96 in 5.6 mi NNW 13.8 mph 20.7 mph N/A   Haze
12:58 PM 77.0 °F 57.4 °F 51% 29.93 in 5.6 mi NNW 16.1 mph 23.0 mph N/A   Haze
1:58 PM 79.2 °F 61.5 °F 55% 29.92 in 5.6 mi North 18.4 mph 24.2 mph N/A   Haze
2:58 PM 78.1 °F 60.3 °F 54% 29.92 in 5.6 mi North 13.8 mph 20.7 mph N/A   Haze
3:58 PM 75.4 °F 62.1 °F 63% 29.94 in 6.2 mi North 12.7 mph 21.9 mph N/A   Scattered Clouds
4:58 PM 75.2 °F 62.4 °F 64% 29.95 in 6.2 mi North 12.7 mph 19.6 mph N/A   Scattered Clouds
5:58 PM 74.1 °F 64.2 °F 71% 29.96 in 6.2 mi NNE 11.5 mph - N/A   Scattered Clouds
6:58 PM 73.8 °F 63.1 °F 69% 29.98 in 6.2 mi NNE 11.5 mph - N/A   Scattered Clouds
7:58 PM 72.3 °F 66.7 °F 83% 30.03 in 5.6 mi NE 10.4 mph - 0.02 in Rain Light Rain Showers
8:58 PM 71.8 °F 66.4 °F 83% 30.01 in 6.2 mi NE 9.2 mph - 0.01 in   Mostly Cloudy
9:58 PM 71.6 °F 61.5 °F 70% 30.04 in 6.2 mi NE 10.4 mph - N/A   Scattered Clouds
10:58 PM 71.2 °F 63.0 °F 75% 30.06 in 6.2 mi NE 10.4 mph - N/A   Scattered Clouds
11:58 PM 71.4 °F 57.9 °F 62% 30.06 in 6.2 mi NE 9.2 mph - N/A   Scattered Clouds